Winner, SD

3:52 PM CST on January 17, 2017 (GMT -0600)
Winner

Weather History for KICR - October, 2012

Change the Weather History Date:

Tuesday, October 23, 2012

  Actual Average Record
Temperature  
Mean Temperature 61 °F 48 °F  
Max Temperature 77 °F 59 °F 77 °F (2012)
Min Temperature 44 °F 36 °F 35 °F (2008)
Degree Days  
Heating Degree Days 4 17  
Month to date heating degree days 302 302  
Since 1 July heating degree days 360 444  
Cooling Degree Days 0 0  
Month to date cooling degree days 2 9  
Year to date cooling degree days 1470 915  
Growing Degree Days 10 (Base 50)    
Moisture  
Dew Point 47 °F    
Average Humidity 69    
Maximum Humidity 100    
Minimum Humidity 38    
Precipitation  
Precipitation 0.00 in 0.05 in 0.20 in (2015)
Month to date precipitation 0.04 1.31  
Year to date precipitation 10.15 20.30  
Sea Level Pressure  
Sea Level Pressure 29.71 in    
Wind  
Wind Speed 9 mph (SSW)    
Max Wind Speed 31 mph    
Max Gust Speed 36 mph    
Visibility 8 miles    
Events      
T = Trace of Precipitation, MM = Missing Value Source: NWS Daily Summary

Daily Weather History Graph

Daily Weather History Graph

Search for Another Location

Airport or City:

Trip Planner

Search our weather history database for the weather conditions in past years. The results will help you decide how hot, cold, wet, or windy it might be!

Date:

Astronomy

Oct. 23, 2012 Rise Set
Actual Time 8:03 AM CDT 6:42 PM CDT
Civil Twilight 7:34 AM CDT 7:11 PM CDT
Nautical Twilight 7:01 AM CDT 7:45 PM CDT
Astronomical Twilight 6:28 AM CDT 8:18 PM CDT
Moon 3:36 PM CDT (10/23) 1:47 AM CDT (10/23)
Length of Visible Light 11h 37m
Length of Day
10h 38m
Waxing Gibbous, 67% of the Moon is Illuminated
Oct 23
Waxing Gibbous
Oct 29
Full
Nov 6
Last Quarter
Nov 13
New
Nov 20
First Quarter

Hourly Weather History & Observations

Time (CDT) Temp. Windchill Dew Point Humidity Pressure Visibility Wind Dir Wind Speed Gust Speed Precip Events Conditions
1:42 AM 46.4 °F 42.9 °F 44.6 °F 93% 29.73 in 8.0 mi SSE 6.9 mph - N/A   Mostly Cloudy
1:53 AM 48.0 °F - 45.0 °F 89% 29.75 in 8.0 mi South 8.1 mph - N/A   Overcast
2:53 AM 48.9 °F - 46.0 °F 90% 29.74 in 7.0 mi South 6.9 mph - N/A   Overcast
3:09 AM 50.0 °F - 46.4 °F 87% 29.73 in 7.0 mi South 4.6 mph - N/A   Overcast
3:26 AM 50.0 °F - 46.4 °F 87% 29.72 in 7.0 mi SSE 5.8 mph - N/A   Overcast
3:53 AM 50.0 °F - 46.9 °F 89% 29.73 in 7.0 mi SSE 6.9 mph - N/A   Overcast
4:53 AM 50.0 °F - 46.9 °F 89% 29.71 in 7.0 mi South 5.8 mph - N/A   Overcast
5:35 AM 50.0 °F - 46.4 °F 87% 29.69 in 6.0 mi South 10.4 mph - N/A   Overcast
5:53 AM 50.0 °F - 46.9 °F 89% 29.70 in 5.0 mi South 9.2 mph - N/A   Overcast
6:32 AM 48.2 °F - 48.2 °F 100% 29.69 in 4.0 mi South 6.9 mph - N/A   Overcast
6:53 AM 48.9 °F - 48.0 °F 97% 29.71 in 4.0 mi South 8.1 mph - N/A   Overcast
7:24 AM 50.0 °F - 48.2 °F 94% 29.69 in 8.0 mi SSW 8.1 mph - N/A   Overcast
7:46 AM 51.8 °F - 48.2 °F 88% 29.68 in 9.0 mi Variable 5.8 mph - N/A   Overcast
7:53 AM 51.1 °F - 48.0 °F 89% 29.69 in 9.0 mi South 5.8 mph - N/A   Overcast
8:53 AM 52.0 °F - 48.0 °F 86% 29.68 in 7.0 mi SSW 6.9 mph - N/A   Overcast
9:53 AM 53.1 °F - 48.9 °F 86% 29.68 in 6.0 mi SSW 8.1 mph - N/A   Overcast
10:39 AM 55.4 °F - 50.0 °F 82% 29.66 in 7.0 mi South 10.4 mph - N/A   Overcast
10:53 AM 55.9 °F - 50.0 °F 80% 29.66 in 8.0 mi South 12.7 mph - N/A   Overcast
11:53 AM 59.0 °F - 51.1 °F 75% 29.65 in 9.0 mi South 11.5 mph - N/A   Overcast
12:14 PM 60.8 °F - 51.8 °F 72% 29.65 in 8.0 mi South 13.8 mph 19.6 mph N/A   Scattered Clouds
12:53 PM 63.0 °F - 51.1 °F 65% 29.63 in 10.0 mi SE 10.4 mph - N/A   Clear
1:53 PM 68.0 °F - 50.0 °F 52% 29.63 in 10.0 mi WSW 10.4 mph - N/A   Clear
2:53 PM 73.9 °F - 50.0 °F 43% 29.61 in 10.0 mi Calm Calm - N/A   Clear
3:53 PM 75.9 °F - 48.0 °F 37% 29.60 in 10.0 mi Calm Calm - N/A   Clear
4:53 PM 64.0 °F - 46.0 °F 52% 29.63 in 10.0 mi NW 10.4 mph - N/A   Clear
5:53 PM 68.0 °F - 46.0 °F 45% 29.69 in 10.0 mi NW 25.3 mph 33.4 mph N/A   Clear
6:53 PM 59.0 °F - 44.1 °F 58% 29.74 in 10.0 mi NNW 18.4 mph - N/A   Clear
7:53 PM 53.1 °F - 42.1 °F 66% 29.78 in 10.0 mi NW 10.4 mph - N/A   Clear
8:53 PM 50.0 °F - 41.0 °F 71% 29.82 in 10.0 mi NNW 15.0 mph - N/A   Clear
9:53 PM 46.0 °F 41.9 °F 39.9 °F 79% 29.85 in 10.0 mi NNW 8.1 mph - N/A   Clear
10:53 PM 45.0 °F 42.6 °F 39.9 °F 82% 29.88 in 10.0 mi NW 4.6 mph - N/A   Clear
11:53 PM 46.0 °F 41.4 °F 41.0 °F 83% 29.89 in 10.0 mi NNW 9.2 mph - N/A   Clear